Simultaneous Nadir Overpasses (SNOs) Predictions

Prediction of SNOs between GOES-14 and AQUA Satellite Orbit:

Table of predicted SNOs for the next 14.0 days since TLE Epoch: 9/6/2019
Index Date Time (GOES-14) GOES-14 Lat,Lon AQUA Lat,Lon Distance(km) Time Diff (sec)
1 09/07/2019 08:14:29 0.36,-104.22 -0.47,-100.16 461.04 80
2 09/07/2019 20:35:54 -0.36,-104.33 -0.60,-105.36 117.91 80
3 09/09/2019 20:26:23 -0.35,-104.32 0.07,-102.41 217.50 80
4 09/10/2019 08:47:38 0.34,-104.24 1.03,-107.57 378.30 80
5 09/12/2019 08:35:26 0.34,-104.23 0.42,-104.61 42.89 80
6 09/14/2019 08:20:34 0.34,-104.22 -0.20,-101.65 292.72 80
7 09/14/2019 20:41:59 -0.33,-104.29 -0.87,-106.85 290.15 80
8 09/16/2019 20:32:27 -0.33,-104.29 -0.25,-103.89 46.18 80
9 09/18/2019 20:20:15 -0.33,-104.29 0.38,-100.93 382.61 80
10 09/19/2019 08:41:29 0.32,-104.24 0.72,-106.08 209.66 80




NCC Satellite Simultaneous Nadir Overpasses (SNOs) Prediction Service
